星链-32289 (STARLINK-32289)

导读 | 豆包AI

STARLINK-32289是美国SpaceX星链互联网星座中的一颗卫星,于2024年8月28日发射。作为星链星座的组成部分,它承担着为全球提供低延迟、高速率卫星互联网服务的任务,尤其服务偏远地区、航空航海等传统网络覆盖薄弱场景,助力全球宽带接入网络的无缝覆盖。

Basic Information
目录编号:
60737
目录名称:
STARLINK-32289
国际标识:
2024-152T
轨道中心:
EARTH
卫星名称:
星链-32289 (STARLINK-32289)
卫星全名:
星链-32289 (STARLINK-32289)
卫星状态:
在轨 (已飞行611 天)
发射日期:
2024-08-28 UTC
国别 :
美国 (US)
星等 :
--
Orbit Information
数据来源 国际轨道数据 AOE轨道数据
星历时间 2026-05-01T01:18:47+0800
12小时前
查看轨道信息
2026-04-27T17:00:00+0800
3天前
查看轨道信息
半长轴 6853.371km 6853.373km
偏心率 0.0001305 0.0001281
轨道倾角 53.163° 53.160°
近地点辐角 95.947° 72.822°
升交点赤经 26.994° 42.538°
平近点角 264.168° 202.839°
近地点 474.339km 474.358km
远地点 476.129km 476.114km
周期 94.106分钟 94.106分钟
每日圈数 15.301938 15.301931
Detailed Information
卫星平台:
Starlink v2.0 mini
运营商:
太空探索技术公司
运营商所在国:
美国
制造商(研发单位):
太空探索技术公司
制造商所在国:
美国
使用方式:
暂无
Satellite Introduction
星链(Starlink)计划是由太空探索技术公司(SpaceX)提出的一个巨型低轨卫星互联网星座项目,计划在2019年至2024年间在太空搭建由约1.2万颗卫星组成的“星链”网络,其中1584颗将部署在地球上空550千米处的近地轨道,并从2020年开始工作。该卫星仍在工作。
2D Orbit Map
3D Orbit Map
Orbit Altitude Analysis Chart
Orbit Inclination Analysis Chart
Orbit Comprehensive Analysis Chart
View Comprehensive Chart